www.pogodaiklimat.ru
ПОГОДА в Сиболге
Время
(UTC), дата
21 8.10
00 9.10
03 9.10
06 9.10
09 9.10
12 9.10
15 9.10
18 9.10
21 9.10
00 10.10
03 10.10
06 10.10
09 10.10
12 10.10
15 10.10
18 10.10
21 10.10
00 11.10
03 11.10
06 11.10
09 11.10
12 11.10
15 11.10
18 11.10
21 11.10
00 12.10
03 12.10
06 12.10
09 12.10
12 12.10
15 12.10
18 12.10
21 12.10
00 13.10
03 13.10
06 13.10
09 13.10
12 13.10
15 13.10
18 13.10
21 13.10
00 14.10
03 14.10
06 14.10
09 14.10
12 14.10
15 14.10
18 14.10
21 14.10
00 15.10
03 15.10
06 15.10
09 15.10
12 15.10
15 15.10
18 15.10
Ветер
(напр.,м/с)
Видим. Явления Облачность Т
(С)
Тd
(С)
f
(%)
Тe
(С)
Тes
(С)
Комфортность P
(гПа)
Po
(гПа)
Тmin
(С)
Tmax
(С)
R
(мм)
R24
(мм)
S
(см)
штиль 0 6000 м 9/4 500 м
[Cb cap As op Ci sp]
+23.4 +22.8 96 +33 +33 очень
душно
1010.0 1008.6
штиль 0 8000 м в посл. час дождь 9/5 400 м
[Cb cap Ac As Ci sp]
+23.8 +23.5 98 +32 +32 очень
душно
1011.7 1010.3 +21.8 0.0
СЗ 2 8000 м {дождь} 9/5 400 м
[Cb cap Ac As Ci sp]
+24.0 +22.5 91 +31 +36 очень
душно
1013.7 1012.3 2
З 2 10 км 5/5 300 м
[]
+27.1 +23.9 83 +37 +49 очень
душно
1010.6 1009.2 4
СЗ 3 7000 м 9/5 500 м
[Cb cap Ac As Ci fib]
+29.3 +24.3 75 +41 +43 опасность
перегрева
1007.6 1006.2
штиль 0 6000 м 8/5 600 м
[Sc Ac As Ci fib]
+26.6 +24.1 86 +37 +37 очень
душно
1010.2 1008.8 +30.1
штиль 0 5000 м мгла 6/4 600 м
[Sc Ac As Ci fib]
+25.4 +24.3 94 +35 +35 очень
душно
1012.5 1011.1
В 1 4800 м дымка 5/5 300 м
[]
+23.3 +23.2 99 +33 +33 очень
душно
1010.9 1009.5 4
СВ 1 4800 м дымка 5/5 300 м
[]
+23.5 +23.5 100 +32 +32 очень
душно
1010.1 1008.8
штиль 0 6000 м 9/5 450 м
[Cb cap As op Ci sp]
+23.8 +22.9 95 +32 +32 очень
душно
1012.3 1010.9 +23.4 44
штиль 0 10 км 9/4 600 м
[Cu med, cong As op Ci sp]
+27.0 +23.1 79 +36 +43 очень
душно
1013.9 1012.5
ЮЗ 3 10 км 9/4 600 м
[Cu med, cong As op Ci sp]
+30.4 +24.1 69 +42 +49 опасность
перегрева
1010.8 1009.4
З 3 10 км 9/4 600 м
[Cu med, cong As op Ci sp]
+30.6 +24.0 68 +42 +44 опасность
перегрева
1008.0 1006.8
штиль 0 7000 м 9/4 450 м
[Cb cap Ac As Ci sp]
+27.4 +24.4 84 +39 +39 очень
душно
1009.9 1008.6 +31.0
штиль 0 5000 м мгла 9/4 600 м
[Sc As op Ci sp]
+25.8 +24.6 93 +36 +36 очень
душно
1012.0 1010.6
штиль 0 5000 м мгла 9/4 600 м
[Cu med, cong As op Ci sp]
+24.6 +23.7 95 +33 +33 очень
душно
1011.0 1009.6
штиль 0 5000 м мгла 9/4 600 м
[Cu med, cong As op Ci sp]
+24.0 +23.4 96 +32 +32 очень
душно
1010.1 1008.7
штиль 0 7000 м 9/4 500 м
[Cb cap As op Ci sp]
+23.7 +22.9 95 +31 +32 очень
душно
1010.6 1009.0 +22.0
З 3 8000 м 9/4 600 м
[Cu med, cong As op Ci sp]
+28.6 +23.5 74 +39 +43 очень
душно
1012.3 1010.9
ЮЗ 3 10 км 9/4 600 м
[Cu med, cong As op Ci sp]
+30.0 +24.6 73 +43 +49 опасность
перегрева
1009.1 1007.7
ЮЗ 3 7000 м {дождь} 9/4 500 м
[Cb cap As op Ci sp]
+29.0 +24.8 78 +41 +44 опасность
перегрева
1007.5 1006.1 3
штиль 0 5000 м в посл. час дождь {гроза} 9/5 400 м
[Cb cap Ac As Ci sp]
+24.0 +24.0 100 +33 +33 очень
душно
1010.0 1008.6 +30.6 42
штиль 0 5000 м мгла 9/4 450 м
[Cb cap As op Ci sp]
+24.3 +24.0 98 +33 +33 очень
душно
1011.3 1009.9
штиль 0 5000 м мгла 9/4 450 м
[Cb cap Ac As Ci sp]
+24.0 +23.7 98 +33 +33 очень
душно
1010.3 1009.1
Ю 3 5000 м мгла 9/4 450 м
[Cb cap Ac As Ci sp]
+23.4 +23.1 98 +33 +33 очень
душно
1009.6 1008.2
штиль 0 800 м слаб. дождь 9/5 300 м
[Cb cap Ac As Ci sp]
+23.2 +23.1 99 +32 +33 очень
душно
1010.4 1009.0 +23.0 11
Ю 2 10 км {дождь} 9/4 600 м
[Sc As op Ci sp]
+28.8 +24.3 77 +40 +45 очень
душно
1011.1 1009.7 1
З 3 8000 м {дождь} 9/4 500 м
[Cb cap As op Ci sp]
+30.7 +25.1 72 +44 +50 опасность
перегрева
1007.7 1
штиль 0 4000 м слаб. дождь {гроза} 9/5 400 м
[Cb cap Ac As Ci sp]
+26.0 +25.3 96 +38 +41 очень
душно
1008.3 1006.9 22
штиль 0 6000 м в посл. час дождь {гроза} 9/4 420 м
[Cb cap Ac As Ci sp]
+23.4 +22.8 96 +33 +33 очень
душно
1009.8 1008.4 +31.1 34
З 1 4000 м дымка 9/4 450 м
[Cb cap Ac As Ci sp]
+24.0 +23.7 98 +33 +33 очень
душно
1011.5 1010.3
ЮЗ 1 4000 м дымка 5/5 300 м
[]
+23.3 +23.3 100 +33 +33 очень
душно
1010.9 1009.5 16
СЗ 2 4000 м дымка 9/5 500 м
[Cb cap Ac As Ci sp]
+24.2 +23.6 96 +33 +33 очень
душно
1009.7 1008.4
штиль 0 5000 м осадки на расстоянии 9/5 400 м
[Cb cap Ac As Ci sp]
+24.0 +23.4 96 +32 +32 очень
душно
1010.5 1009.1 +22.1 57
СЗ 2 10 км 3/3 600 м
[]
+27.7 +25.0 85 +40 +49 очень
душно
1011.9 1010.6
СЗ 4 10 км 9/4 500 м
[Cb cap As op Ci sp]
+29.0 +24.2 75 +40 +46 очень
душно
1009.8 1008.4
штиль 0 4000 м слаб. дождь 9/4 300 м
[Cb cap Ac As Ci sp]
+26.2 +25.0 93 +37 +41 очень
душно
1007.8 1006.4 4
штиль 0 5000 м мгла {дождь} 9/4 450 м
[Cb cap Ac As Ci sp]
+24.7 +24.1 96 +34 +34 очень
душно
1009.0 1007.7 +30.2 14
штиль 0 5000 м в посл. час дождь 9/4 400 м
[Cb cap Ac As Ci sp]
+24.3 +23.8 97 +33 +33 очень
душно
1012.0 1010.6 10
штиль 0 4000 м мгла {дождь} 9/4 450 м
[Cb cap Ac As Ci sp]
+24.0 +23.7 98 +33 +33 очень
душно
1010.3 1008.9 10
штиль 0 5000 м мгла 9/4 450 м
[Cb cap As op Ci sp]
+23.4 +22.9 97 +33 +33 очень
душно
1009.0 1007.6
штиль 0 5000 м мгла 9/4 600 м
[Cu med, cong As op Ci sp]
+23.2 +22.9 98 +32 +32 очень
душно
1010.1 1008.7 +22.0 28
штиль 0 10 км 9/4 600 м
[Cu med, cong As op Ci sp]
+27.6 +24.3 82 +39 +45 очень
душно
1011.9 1010.5
З 3 8000 м 9/4 450 м
[Cb cap Ac As Ci sp]
+30.2 +24.5 72 +43 +49 опасность
перегрева
1009.5 1008.1
СЗ 3 10 км 9/9 300 м
[]
+25.9 +25.2 96 +37 +38 очень
душно
1007.7 1006.3
штиль 0 4000 м слаб. дождь 9/5 300 м
[Cb cap Ac As Ci sp]
+23.2 +23.1 99 +32 +32 очень
душно
1010.0 1008.6 +31.0 59
штиль 0 6000 м {дождь} 9/4 400 м
[Cb cap Ac As Ci sp]
+23.5 +23.3 99 +32 +32 очень
душно
1011.7 1010.3 0.8
штиль 0 6000 м {дождь} 9/4 500 м
[Cb cap As op Ci sp]
+24.0 +23.7 98 +33 +33 очень
душно
1010.7 1009.3 0.8
штиль 0 6000 м 9/4 500 м
[Cb cap As op Ci sp]
+24.1 +23.8 98 +33 +33 очень
душно
1010.0 1008.6
штиль 0 3000 м мгла 9/4 450 м
[Cb cap Ac As Ci sp]
+24.0 +23.5 97 +32 +33 очень
душно
1010.6 1009.2 +22.0 60
штиль 0 6000 м 9/4 500 м
[Cb cap As op Ci sp]
+26.6 +24.2 87 +37 +44 очень
душно
1011.8 1010.4
С 2 4000 м в посл. час дождь 9/4 500 м
[Cb cap As op Ci sp]
+27.0 +23.8 83 +37 +44 очень
душно
1009.7 1008.3 4
СЗ 4 5000 м мгла 9/4 450 м
[Cb cap Ac As Ci sp]
+28.4 +24.3 78 +40 +42 очень
душно
1007.5 1006.1
штиль 0 7000 м 9/4 500 м
[Cb cap As op Ci sp]
+27.4 +25.3 88 +40 +40 очень
душно
1009.3 1007.9 +29.8
штиль 0 5000 м мгла 9/4 500 м
[Cb cap As op Ci sp]
+25.8 +24.9 95 +37 +37 очень
душно
1011.2 1009.8
штиль 0 5000 м мгла 9/4 500 м
[Cb cap As op Ci sp]
+24.6 +24.0 96 +34 +34 очень
душно
1010.4 1009.0
Местоположение метеостанции Сиболга (Индонезия): широта 1.55 долгота 98.88 высота над уровнем моря 3 м.
В архиве по умолчанию представлена погода в Сиболге за последнюю неделю. Архивные данные за месяц целиком и за предыдущие месяцы, начиная с января 2011 года, Вы можете получить, выбрав интересующий диапазон дат из раскрывающегося списка и нажав кнопку "Найти!".
*Определитесь, кто Вы:
Внимание! Время в таблицах - всемирное. Для получения местного времени необходимо прибавить поправку, которая равна 7 ч.
Смотрите также архив погоды в соседних городах и на ближайших метеорологических станциях:
Партнеры нашего сайта:      
Пояснения к столбцам:
  • Ветер - указаны скорость ветра в м/с - средняя за 10 мин, порывы в срок и между сроками (в фигурных скобках) и направление, откуда дует ветер: С - северный,
  • СВ - северо-восточный, В - восточный, ЮВ - юго-восточный, Ю - южный, ЮЗ - юго-западный, З - западный, СЗ - северо-западный.
  • Видимость - горизонтальная дальность видимости в метрах или километрах. При видимости от 1 до 10 км при отсутствии осадков обычно наблюдается дымка, при ухудшении видимости до 1 км и менее - туман. В сухую погоду видимость может ухудшаться дымом, пылью или мглою.
  • Явления - указаны атмосферные явления, наблюдавшиеся в срок или в последний час перед сроком; фигурными скобками обозначены явления, наблюдавшиеся между сроками (за 1-3 часа до срока); квадратными скобками обозначены град или гололедные отложения с указанием их диаметра в мм.
  • Облачность - указаны через наклонную черту общая и нижняя облачность в баллах и высота нижней границы облаков в метрах; квадратными скобками обозначены формы облаков: Ci - перистые, Cs - перисто-слоистые, Cc - перисто-кучевые, Ac - высококучевые, As - высокослоистые, Sc - слоисто-кучевые, Ns - слоисто-дождевые, Cu - кучевые, Cb - кучево-дождевые. Подробнее классификацию облаков см. в Атласе облаков (PDF).
  • T - Температура воздуха - температура, измеренная на высоте 2 м над землей.
  • Td - Температура точки росы - температура, при понижении до которой содержащийся в воздухе водяной пар достигнет насыщения.
  • f - Относительная влажность воздуха - влажноcть воздуха, измеренная на высоте 2 м над землей.
  • Te - Эффективная температура - температура, которую ощущает одетый по сезону человек в тени. Характеристика душности погоды. При расчете учитывается влияние влажности воздуха и скорости ветра на теплоощущения человека.
  • Tes - Эффективная температура на солнце - температура, которую ощущает человек, с поправкой на солнечный нагрев. Характеристика знойности погоды. Зависит от высоты солнца над горизонтом, облачности и скорости ветра. Ночью, в пасмурную погоду, а также при ветре 12 м/с и более поправка равна нулю.
  • P - Атмосферное давление - приведенное к уровню моря атмосферное давление.
  • Po - Атмосферное давление - измеренное на уровне метеостанции атмосферное давление.
  • Tmin - Минимальная температура - минимум температуры воздуха на высоте 2 м над землей.
  • Tmax - Максимальная температура - максимум температуры воздуха на высоте 2 м над землей.
  • R - Количество осадков - Количество выпавших осадков за период времени, мм. При наведении курсора мыши на число - период времени, за который выпало указанное количество осадков.
  • R24 - Количество осадков - Количество выпавших осадков за 24 часа, мм.
  • S - Снежный покров - Высота снежного покрова, см. При наведении курсора мыши на число - состояние снежного покрова и степень покрытия местности в баллах.